Weather History for Douglas, WY

Change the Weather History Date:

Wednesday, January 15, 2014

  Actual Average Record
Temperature  
Mean Temperature 32 °F 25 °F  
Max Temperature 44 °F 39 °F 62 °F (2003)
Min Temperature 19 °F 11 °F -7 °F (2007)
Degree Days  
Heating Degree Days 33 40  
Month to date heating degree days 614 602  
Since 1 July heating degree days 3693 3691  
Cooling Degree Days 0 0  
Month to date cooling degree days 0 0  
Year to date cooling degree days 0 0  
Moisture  
Dew Point 21 °F    
Average Humidity 62    
Maximum Humidity 81    
Minimum Humidity 43    
Precipitation  
Precipitation 0.00 in 0.01 in 0.05 in (2006)
Month to date precipitation 0.19 0.15  
Year to date precipitation 0.19 0.15  
Sea Level Pressure  
Sea Level Pressure 30.13 in    
Wind  
Wind Speed 14 mph (NW)    
Max Wind Speed 28 mph    
Max Gust Speed 36 mph    
Visibility 10 miles    
Events      
T = Trace of Precipitation, MM = Missing Value Source: NWS Daily Summary

Daily Weather History Graph

Daily Weather History Graph

Search for Another Location

Airport:

Trip Planner

Search our weather history database for the weather conditions in past years. The results will help you decide how hot, cold, wet, or windy it might be!

Date:

Astronomy

Jan. 15, 2014 Rise Set
Actual Time 7:29 AM MST 4:53 PM MST
Civil Twilight 6:58 AM MST 5:24 PM MST
Nautical Twilight 6:23 AM MST 5:59 PM MST
Astronomical Twilight 5:49 AM MST 6:33 PM MST
Moon 4:54 PM MST (1/15) 6:45 AM MST (1/15)
Length of Visible Light 10h 26m
Length of Day
9h 23m
Full, 100% of the Moon is Illuminated
Jan 15
Full
Jan 15
Full
Jan 23
Last Quarter
Jan 30
New
Feb 6
First Quarter

Hourly Weather History & Observations

Time (MST) Temp. Windchill Dew Point Humidity Pressure Visibility Wind Dir Wind Speed Gust Speed Precip Events Conditions
12:53 AM 23.0 °F 13.9 °F 17.1 °F 78% 30.32 in 10.0 mi NW 8.1 mph - N/A   Clear
1:53 AM 21.9 °F - 16.0 °F 78% 30.32 in 10.0 mi Calm Calm - N/A   Clear
2:53 AM 21.0 °F - 16.0 °F 81% 30.29 in 10.0 mi Calm Calm - N/A   Clear
3:53 AM 24.1 °F 19.7 °F 17.1 °F 75% 30.24 in 10.0 mi WNW 3.5 mph - N/A   Clear
4:53 AM 24.1 °F - 17.1 °F 75% 30.22 in 10.0 mi Calm Calm - N/A   Clear
5:53 AM 33.1 °F 25.5 °F 21.0 °F 61% 30.15 in 10.0 mi NNW 9.2 mph - N/A   Clear
6:53 AM 34.0 °F 23.8 °F 21.0 °F 59% 30.12 in 10.0 mi WNW 16.1 mph 21.9 mph N/A   Clear
7:53 AM 35.1 °F 24.1 °F 21.0 °F 57% 30.11 in 10.0 mi WNW 19.6 mph 26.5 mph N/A   Clear
8:53 AM 37.0 °F 27.4 °F 21.9 °F 54% 30.13 in 10.0 mi NW 17.3 mph - N/A   Clear
9:53 AM 41.0 °F 31.9 °F 23.0 °F 49% 30.12 in 10.0 mi WNW 19.6 mph 27.6 mph N/A   Mostly Cloudy
10:53 AM 43.0 °F 34.2 °F 21.9 °F 43% 30.11 in 10.0 mi WNW 20.7 mph 32.2 mph N/A   Clear
11:53 AM 43.0 °F 35.4 °F 24.1 °F 47% 30.08 in 10.0 mi WNW 16.1 mph - N/A   Clear
12:53 PM 43.0 °F 36.8 °F 24.1 °F 47% 30.06 in 10.0 mi WNW 11.5 mph - N/A   Clear
1:53 PM 43.0 °F 34.0 °F 21.9 °F 43% 30.06 in 10.0 mi NW 21.9 mph 28.8 mph N/A   Clear
2:53 PM 41.0 °F 30.7 °F 24.1 °F 51% 30.06 in 10.0 mi WNW 25.3 mph 33.4 mph N/A   Clear
3:53 PM 43.0 °F 34.2 °F 23.0 °F 45% 30.04 in 10.0 mi NW 20.7 mph 29.9 mph N/A   Clear
4:53 PM 39.9 °F 30.8 °F 21.9 °F 49% 30.06 in 10.0 mi WNW 18.4 mph - N/A   Clear
5:53 PM 37.9 °F 29.6 °F 21.9 °F 53% 30.05 in 10.0 mi NNW 13.8 mph - N/A   Clear
6:53 PM 39.9 °F 29.5 °F 19.9 °F 45% 30.04 in 10.0 mi WNW 24.2 mph 31.1 mph N/A   Clear
7:53 PM 37.0 °F 27.7 °F 21.0 °F 52% 30.08 in 10.0 mi NW 16.1 mph - N/A   Clear
8:53 PM 34.0 °F 25.0 °F 21.0 °F 59% 30.09 in 10.0 mi NNW 12.7 mph - N/A   Clear
9:53 PM 36.0 °F 26.3 °F 19.0 °F 50% 30.08 in 10.0 mi NW 16.1 mph - N/A   Clear
10:53 PM 32.0 °F 22.5 °F 19.9 °F 61% 30.11 in 10.0 mi NNW 12.7 mph - N/A   Clear
11:53 PM 30.9 °F 19.8 °F 18.0 °F 59% 30.12 in 10.0 mi NNW 16.1 mph - N/A   Clear